IRIDIUM 163

Last updated on Sun Jun 21 2026 00:03:14 GMT+0000 (Coordinated Universal Time)

1 43575U 18061G 26171.42192557 .00000078 00000+0 20884-4 0 9992 2 43575 86.3957 55.3697 0002234 83.5171 276.6279 14.34217054413845
UTC large
Height (km)
Speed (km/s)
/
Latitude / Longitude
Inclination (degrees)
Orbital Period (minutes)
Azimuth
Elevation
Range (km)
Doppler Factor

Next 0 passes for location: London (51.5072 / 0.1276)

No passes found over London.
IRIDIUM 163